Home > Weather > Winder > Past weeks

Flag for U.S.A. Weather for the Past 2 Weeks in Winder, Georgia, U.S.A.

Now
32 °F

Clear.


Feels Like: 32 °F
Forecast: 34 / 55 °F
Wind: No wind

Location: Winder-Barrow Airport

Current Time: Feb 12, 2016 at 3:43:18 AM

Latest Report: Feb 12, 2016 at 3:15 AM


Visibility: 10 mi

Pressure: 30.17 "Hg

Humidity: 80%

Dew point: 27 °F

Location of WinderLocation

Historic Weather in Winder — Graph

°F

Winder Temperature Yesterday

Maximum temperature yesterday: 55 °F (at 3:35 PM)
Minimum temperature yesterday: 30 °F (at 5:35 AM)
Average temperature yesterday: 41 °F

High & Low Weather Summary for the Past Weeks

 TemperatureHumidityPressure
High72 °F (Feb 2, 1:55 PM)94% (Feb 2, 1:55 AM)30.43 "Hg (Feb 2, 1:55 AM)
Low25 °F (Feb 10, 6:35 AM)15% (Feb 5, 3:55 PM)29.73 "Hg (Feb 8, 2:15 PM)
Average46 °F57%30.07 "Hg
* Reported Jan 28 2:15 AM — Feb 12 2:15 AM, Winder, Weather by CustomWeather, © 2016

Note: Actual official high and low records may vary slightly from our data, if they occured in-between our weather recording intervals... More about our weather records

Advertising

Winder Weather History for the Previous 24 Hours

 ConditionsComfort  
Time TempWeatherWind HumidityBarometerVisibility
2:15 AM
Fri, Feb 12
34 °FClear.No wind75%30.20 "Hg10 mi
1:55 AM34 °FClear.No wind75%30.21 "Hg10 mi
1:35 AM34 °FClear.No wind75%30.21 "Hg10 mi
1:15 AM36 °FClear.No wind70%30.21 "Hg10 mi
12:35 AM37 °FClear.No wind65%30.21 "Hg10 mi
12:15 AM39 °FClear.No wind61%30.20 "Hg10 mi
11:55 PM
Thu, Feb 11
37 °FClear.No wind65%30.20 "Hg10 mi
11:15 PM41 °FClear.No wind53%30.21 "Hg10 mi
10:55 PM41 °FClear.No wind53%30.21 "Hg10 mi
10:15 PM43 °FClear.No wind49%30.21 "Hg10 mi
9:55 PM41 °FClear.No wind53%30.20 "Hg10 mi
9:15 PM43 °FClear.No wind53%30.20 "Hg10 mi
8:55 PM45 °FClear.No wind42%30.20 "Hg10 mi
8:35 PM43 °FClear.No wind49%30.20 "Hg10 mi
8:15 PM43 °FClear.No wind49%30.20 "Hg10 mi
7:55 PM43 °FClear.No wind53%30.20 "Hg10 mi
7:15 PM46 °FClear.No wind40%30.19 "Hg10 mi
6:55 PM46 °FClear.No wind40%30.19 "Hg10 mi
6:35 PM48 °FClear.No wind34%30.18 "Hg10 mi
6:15 PM50 °FClear.No wind32%30.18 "Hg10 mi
5:55 PM52 °FSunny.No wind30%30.18 "Hg10 mi
4:55 PM54 °FSunny.3 mph26%30.15 "Hg10 mi
4:15 PM55 °FSunny.No wind24%30.14 "Hg10 mi
3:55 PM54 °FSunny.No wind26%30.14 "Hg10 mi
3:35 PM55 °FSunny.No wind24%30.13 "Hg10 mi
3:15 PM54 °FSunny.No wind26%30.13 "Hg10 mi
2:55 PM54 °FSunny.No wind26%30.13 "Hg10 mi
2:35 PM54 °FSunny.No wind26%30.14 "Hg10 mi
2:15 PM52 °FSunny.No wind28%30.15 "Hg10 mi
1:55 PM52 °FSunny.3 mph28%30.15 "Hg10 mi
1:35 PM52 °FSunny.No wind28%30.15 "Hg10 mi
1:15 PM52 °FSunny.No wind26%30.16 "Hg10 mi
12:55 PM50 °FSunny.3 mph25%30.17 "Hg10 mi
12:15 PM50 °FSunny.No wind25%30.20 "Hg10 mi
11:55 AM48 °FSunny.No wind25%30.21 "Hg10 mi
11:35 AM46 °FSunny.9 mph27%30.22 "Hg10 mi
11:15 AM46 °FSunny.No wind25%30.23 "Hg10 mi
10:55 AM46 °FSunny.No wind27%30.23 "Hg10 mi
10:35 AM45 °FSunny.No wind27%30.23 "Hg10 mi
10:15 AM43 °FSunny.No wind29%30.23 "Hg10 mi
9:55 AM41 °FSunny.No wind31%30.23 "Hg10 mi
9:35 AM37 °FSunny.No wind35%30.23 "Hg10 mi
9:15 AM36 °FSunny.No wind41%30.23 "Hg10 mi
8:55 AM34 °FSunny.No wind44%30.22 "Hg10 mi
8:35 AM32 °FSunny.No wind47%30.21 "Hg10 mi
8:15 AM32 °FSunny.No wind47%30.21 "Hg10 mi
7:55 AM32 °FSunny.No wind47%30.20 "Hg10 mi
7:35 AM30 °FSunny.No wind51%30.20 "Hg10 mi
7:15 AM32 °FClear.No wind47%30.19 "Hg10 mi
6:55 AM30 °FClear.No wind51%30.19 "Hg10 mi
6:35 AM32 °FClear.No wind47%30.19 "Hg10 mi
6:15 AM32 °FClear.No wind47%30.18 "Hg10 mi
5:55 AM32 °FClear.No wind44%30.18 "Hg10 mi
5:35 AM30 °FClear.No wind51%30.17 "Hg10 mi
5:15 AM32 °FPassing clouds.No wind47%30.17 "Hg10 mi
4:55 AM32 °FOvercast.No wind47%30.17 "Hg10 mi
4:35 AM32 °FOvercast.No wind47%30.17 "Hg10 mi
4:15 AM32 °FOvercast.No wind47%30.17 "Hg10 mi
3:55 AM32 °FOvercast.No wind44%30.17 "Hg10 mi
3:35 AM32 °FOvercast.No wind44%30.17 "Hg10 mi
3:15 AM32 °FOvercast.No wind44%30.17 "Hg10 mi
Weather by CustomWeather, © 2016

See weather overviewHow to use our weather pages